{"data":{"norad_id":65770,"intl_designator":"2025-217J","name":"KUIPER-00150","alt_names":[],"object_type":"PAYLOAD","status":"ACTIVE","operator":null,"country":"US","launch_date":"2025-09-25","launch_site_code":"AFETR","launch_vehicle":null,"mission":null,"orbit_class":"UNKNOWN","rcs_meters":null,"size_class":null,"mass_kg":null,"dimensions":null,"purposes":[],"wikipedia_slug":null,"has_3d_model":false,"image_url":null,"decayed_at":null,"tle_current":{"epoch":"2026-05-25T00:25:27.221088Z","epoch_age_seconds":83738,"freshness":"FRESH","line1":"1 65770U 25217J   26145.01767617  .00000287  00000+0  66720-4 0  9996","line2":"2 65770  51.9011  73.0907 0001017 102.1272 257.9804 14.79937949 36077","mean_motion":14.79937949,"eccentricity":0.0001017,"inclination_deg":51.9011,"raan_deg":73.0907,"arg_perigee_deg":102.1272,"mean_anomaly_deg":257.9804,"bstar":6.672e-5,"rev_number":3607,"period_min":97.301376789008,"perigee_km":628.80732773434,"apogee_km":630.23268516945,"semimajor_km":7007.6570064519,"source":"CELESTRAK","updated_at":"2026-05-25T13:38:05.660790Z"}}}